When you browse on this site, cookies collect data to enhance your experience and personalize the content and advertising you see.
Visit our Privacy Policy to learn more. By continuing to use the site, you agree to this use of cookies and data.
  • In Schweiz
  • Länderverzeichnis
  • Für 7 Tage
  • Wassertemperatur
  • Satellitenkarten
  • Wetterkarte
  • Widgets
  • user-avatar
    Anmelden

    Stündliche Wetter Adelaide

    Heute, 23 Mai, Donnerstag

    Zeit Temperatur Niederschläge Wind Luftdruck Luftfeuchtigkeit
    00:00 +15°C° 0 mm 1 m/S 765 mmHg 61%
    01:00 +15°C° 0 mm 1 m/S 765 mmHg 60%
    02:00 +15°C° 0 mm 1 m/S 764 mmHg 60%
    03:00 +15°C° 0 mm 2 m/S 764 mmHg 59%
    04:00 +15°C° 0 mm 2 m/S 764 mmHg 59%
    05:00 +15°C° 0 mm 2 m/S 764 mmHg 59%
    06:00 +15°C° 0 mm 2 m/S 764 mmHg 58%
    07:00 +17°C° 0 mm 2 m/S 764 mmHg 56%
    08:00 +19°C° 0 mm 2 m/S 764 mmHg 53%
    09:00 +20°C° 0 mm 3 m/S 764 mmHg 51%
    10:00 +21°C° 0 mm 3 m/S 763 mmHg 49%
    11:00 +22°C° 0 mm 3 m/S 763 mmHg 47%
    12:00 +25°C° 0 mm 4 m/S 762 mmHg 46%
    13:00 +23°C° 0 mm 4 m/S 762 mmHg 47%
    14:00 +23°C° 0 mm 4 m/S 761 mmHg 48%
    15:00 +23°C° 0 mm 4 m/S 761 mmHg 49%
    16:00 +22°C° 0 mm 3 m/S 761 mmHg 55%
    17:00 +20°C° 0 mm 2 m/S 761 mmHg 60%
    18:00 +20°C° 0 mm 1 m/S 761 mmHg 65%
    19:00 +19°C° 0 mm 1 m/S 761 mmHg 61%
    20:00 +18°C° 0 mm 2 m/S 761 mmHg 58%
    21:00 +18°C° 0 mm 2 m/S 761 mmHg 54%
    22:00 +18°C° 0.1 mm 2 m/S 760 mmHg 54%
    23:00 +18°C° 0.1 mm 3 m/S 760 mmHg 55%

    Morgen, 24 Mai, Freitag

    Zeit Temperatur Niederschläge Wind Luftdruck Luftfeuchtigkeit
    00:00 +18°C° 0.1 mm 3 m/S 759 mmHg 55%
    01:00 +18°C° 0.3 mm 4 m/S 759 mmHg 57%
    02:00 +19°C° 0.3 mm 4 m/S 759 mmHg 59%
    03:00 +19°C° 0.3 mm 5 m/S 758 mmHg 61%
    04:00 +19°C° 0.2 mm 5 m/S 758 mmHg 61%
    05:00 +19°C° 0.2 mm 6 m/S 758 mmHg 61%
    06:00 +19°C° 0.2 mm 6 m/S 758 mmHg 61%
    07:00 +20°C° 0 mm 6 m/S 758 mmHg 59%
    08:00 +20°C° 0 mm 6 m/S 759 mmHg 58%
    09:00 +21°C° 0 mm 6 m/S 759 mmHg 56%
    10:00 +21°C° 0 mm 6 m/S 759 mmHg 58%
    11:00 +21°C° 0 mm 6 m/S 759 mmHg 60%
    12:00 +22°C° 0 mm 6 m/S 759 mmHg 62%
    13:00 +21°C° 0 mm 5 m/S 758 mmHg 65%
    14:00 +21°C° 0 mm 5 m/S 758 mmHg 68%
    15:00 +20°C° 0 mm 4 m/S 758 mmHg 71%
    16:00 +19°C° 0 mm 4 m/S 758 mmHg 73%
    17:00 +18°C° 0 mm 4 m/S 759 mmHg 75%
    18:00 +17°C° 0 mm 3 m/S 759 mmHg 77%
    19:00 +17°C° 0 mm 3 m/S 759 mmHg 78%
    20:00 +17°C° 0 mm 3 m/S 759 mmHg 78%
    21:00 +16°C° 0 mm 3 m/S 759 mmHg 79%
    22:00 +15°C° 0 mm 4 m/S 759 mmHg 81%
    23:00 +15°C° 0 mm 4 m/S 759 mmHg 82%

    übermorgen, 25 Mai, Samstag

    Zeit Temperatur Niederschläge Wind Luftdruck Luftfeuchtigkeit
    00:00 +15°C° 0 mm 4 m/S 759 mmHg 83%
    01:00 +15°C° 0 mm 4 m/S 759 mmHg 83%
    02:00 +15°C° 0 mm 4 m/S 759 mmHg 83%
    03:00 +15°C° 0 mm 4 m/S 758 mmHg 83%
    04:00 +15°C° 0.4 mm 4 m/S 758 mmHg 83%
    05:00 +15°C° 0.4 mm 5 m/S 758 mmHg 84%
    06:00 +15°C° 0.4 mm 5 m/S 758 mmHg 84%
    07:00 +15°C° 0.9 mm 5 m/S 758 mmHg 83%
    08:00 +16°C° 0.9 mm 6 m/S 758 mmHg 82%
    09:00 +16°C° 0.9 mm 6 m/S 758 mmHg 82%
    10:00 +16°C° 0.8 mm 6 m/S 758 mmHg 79%
    11:00 +17°C° 0.8 mm 6 m/S 758 mmHg 76%
    12:00 +17°C° 0.8 mm 6 m/S 757 mmHg 73%
    13:00 +16°C° 0.5 mm 6 m/S 757 mmHg 74%
    14:00 +16°C° 0.5 mm 6 m/S 757 mmHg 74%
    15:00 +15°C° 0.5 mm 6 m/S 757 mmHg 74%
    16:00 +15°C° 0.1 mm 6 m/S 757 mmHg 73%
    17:00 +14°C° 0.1 mm 6 m/S 758 mmHg 72%
    18:00 +14°C° 0.1 mm 6 m/S 758 mmHg 71%
    19:00 +14°C° 0 mm 5 m/S 759 mmHg 72%
    20:00 +13°C° 0 mm 5 m/S 759 mmHg 73%
    21:00 +13°C° 0 mm 5 m/S 759 mmHg 74%
    22:00 +13°C° 0 mm 5 m/S 760 mmHg 74%
    23:00 +12°C° 0 mm 5 m/S 760 mmHg 74%

    26 Mai, Sonntag

    Zeit Temperatur Niederschläge Wind Luftdruck Luftfeuchtigkeit
    00:00 +12°C° 0 mm 5 m/S 760 mmHg 74%
    01:00 +12°C° 0 mm 5 m/S 760 mmHg 72%
    02:00 +12°C° 0 mm 5 m/S 759 mmHg 71%
    03:00 +12°C° 0 mm 5 m/S 759 mmHg 70%
    04:00 +12°C° 0 mm 5 m/S 760 mmHg 71%
    05:00 +12°C° 0 mm 5 m/S 760 mmHg 72%
    06:00 +12°C° 0 mm 5 m/S 760 mmHg 74%
    07:00 +13°C° 0.1 mm 5 m/S 760 mmHg 70%
    08:00 +14°C° 0.1 mm 6 m/S 761 mmHg 67%
    09:00 +15°C° 0.1 mm 6 m/S 761 mmHg 63%
    10:00 +15°C° 0.1 mm 7 m/S 761 mmHg 62%
    11:00 +16°C° 0.1 mm 7 m/S 760 mmHg 60%
    12:00 +16°C° 0.1 mm 7 m/S 760 mmHg 59%
    13:00 +16°C° 0.2 mm 7 m/S 760 mmHg 62%
    14:00 +16°C° 0.2 mm 7 m/S 760 mmHg 65%
    15:00 +16°C° 0.2 mm 7 m/S 760 mmHg 68%
    16:00 +15°C° 0.1 mm 6 m/S 760 mmHg 69%
    17:00 +14°C° 0.1 mm 6 m/S 760 mmHg 70%
    18:00 +14°C° 0.1 mm 5 m/S 761 mmHg 72%
    19:00 +14°C° 0 mm 5 m/S 761 mmHg 73%
    20:00 +13°C° 0 mm 5 m/S 761 mmHg 73%
    21:00 +13°C° 0 mm 5 m/S 761 mmHg 74%
    22:00 +13°C° 0.1 mm 5 m/S 761 mmHg 74%
    23:00 +13°C° 0.1 mm 5 m/S 761 mmHg 73%

    27 Mai, Montag

    Zeit Temperatur Niederschläge Wind Luftdruck Luftfeuchtigkeit
    00:00 +14°C° 0.1 mm 5 m/S 761 mmHg 73%
    01:00 +13°C° 0.1 mm 5 m/S 761 mmHg 74%
    02:00 +13°C° 0.1 mm 4 m/S 761 mmHg 75%
    03:00 +13°C° 0.1 mm 4 m/S 760 mmHg 77%
    04:00 +13°C° 0.1 mm 4 m/S 761 mmHg 77%
    05:00 +13°C° 0.1 mm 4 m/S 761 mmHg 78%
    06:00 +13°C° 0.1 mm 4 m/S 761 mmHg 79%
    07:00 +14°C° 0.2 mm 5 m/S 761 mmHg 76%
    08:00 +15°C° 0.2 mm 5 m/S 761 mmHg 74%
    09:00 +15°C° 0.2 mm 5 m/S 761 mmHg 72%
    10:00 +15°C° 0.2 mm 6 m/S 761 mmHg 70%
    11:00 +16°C° 0.2 mm 6 m/S 760 mmHg 68%
    12:00 +16°C° 0.2 mm 7 m/S 759 mmHg 66%
    13:00 +16°C° 0.2 mm 7 m/S 759 mmHg 68%
    14:00 +15°C° 0.2 mm 7 m/S 758 mmHg 69%
    15:00 +15°C° 0.2 mm 7 m/S 758 mmHg 71%
    16:00 +15°C° 0.3 mm 6 m/S 758 mmHg 72%
    17:00 +15°C° 0.3 mm 6 m/S 758 mmHg 74%
    18:00 +15°C° 0.3 mm 6 m/S 758 mmHg 75%
    19:00 +15°C° 0.2 mm 6 m/S 758 mmHg 76%
    20:00 +15°C° 0.2 mm 7 m/S 758 mmHg 76%
    21:00 +15°C° 0.2 mm 7 m/S 758 mmHg 76%
    22:00 +15°C° 0.3 mm 7 m/S 758 mmHg 77%
    23:00 +15°C° 0.3 mm 7 m/S 757 mmHg 77%

    28 Mai, Dienstag

    Zeit Temperatur Niederschläge Wind Luftdruck Luftfeuchtigkeit
    00:00 +15°C° 0.3 mm 6 m/S 757 mmHg 77%
    01:00 +14°C° 0.2 mm 6 m/S 757 mmHg 78%
    02:00 +14°C° 0.2 mm 6 m/S 757 mmHg 79%
    03:00 +14°C° 0.2 mm 6 m/S 756 mmHg 80%
    04:00 +14°C° 0.1 mm 6 m/S 757 mmHg 80%
    05:00 +14°C° 0.1 mm 6 m/S 757 mmHg 80%
    06:00 +14°C° 0.1 mm 6 m/S 757 mmHg 80%
    07:00 +15°C° 0.2 mm 6 m/S 757 mmHg 78%
    08:00 +15°C° 0.2 mm 7 m/S 757 mmHg 75%
    09:00 +16°C° 0.2 mm 7 m/S 757 mmHg 73%
    10:00 +16°C° 0.2 mm 7 m/S 757 mmHg 70%
    11:00 +16°C° 0.2 mm 8 m/S 757 mmHg 68%
    12:00 +16°C° 0.2 mm 8 m/S 757 mmHg 65%
    13:00 +16°C° 0.1 mm 8 m/S 757 mmHg 65%
    14:00 +15°C° 0.1 mm 8 m/S 757 mmHg 64%
    15:00 +15°C° 0.1 mm 8 m/S 757 mmHg 63%
    16:00 +14°C° 0 mm 7 m/S 758 mmHg 64%
    17:00 +12°C° 0 mm 7 m/S 759 mmHg 66%
    18:00 +11°C° 0 mm 7 m/S 759 mmHg 67%
    19:00 +11°C° 0.1 mm 7 m/S 759 mmHg 66%
    20:00 +11°C° 0.1 mm 7 m/S 760 mmHg 66%
    21:00 +11°C° 0.1 mm 7 m/S 760 mmHg 65%
    22:00 +11°C° 0.1 mm 7 m/S 760 mmHg 64%
    23:00 +11°C° 0.1 mm 7 m/S 760 mmHg 63%
    Mehr zeigen